TimeCST,TemperatureF,Dew PointF,Humidity,Sea Level PressureIn,VisibilityMPH,Wind Direction,Wind SpeedMPH,Gust SpeedMPH,PrecipitationIn,Events,Conditions,WindDirDegrees,DateUTC
12:15 AM,32.0,23.0,69,30.36,10.0,North,-9999.0,-,N/A,,Clear,0,2013-02-16 06:15:00
12:35 AM,30.2,23.0,75,30.37,10.0,North,-9999.0,-,N/A,,Clear,0,2013-02-16 06:35:00
12:55 AM,28.4,21.2,74,30.37,10.0,North,-9999.0,-,N/A,,Clear,0,2013-02-16 06:55:00
1:15 AM,26.6,21.2,80,30.38,10.0,North,-9999.0,-,N/A,,Clear,0,2013-02-16 07:15:00
1:35 AM,26.6,21.2,80,30.38,10.0,North,-9999.0,-,N/A,,Clear,0,2013-02-16 07:35:00
1:55 AM,26.6,21.2,80,30.38,10.0,North,-9999.0,-,N/A,,Clear,0,2013-02-16 07:55:00
2:15 AM,23.0,19.4,86,30.39,10.0,North,-9999.0,-,N/A,,Clear,0,2013-02-16 08:15:00
2:35 AM,23.0,19.4,86,30.38,10.0,North,-9999.0,-,N/A,,Clear,0,2013-02-16 08:35:00
2:55 AM,23.0,19.4,86,30.37,10.0,North,-9999.0,-,N/A,,Clear,0,2013-02-16 08:55:00
3:15 AM,23.0,19.4,86,30.37,10.0,North,-9999.0,-,N/A,,Clear,0,2013-02-16 09:15:00
3:35 AM,23.0,19.4,86,30.37,10.0,North,-9999.0,-,N/A,,Clear,0,2013-02-16 09:35:00
3:55 AM,21.2,19.4,93,30.36,10.0,North,-9999.0,-,N/A,,Clear,0,2013-02-16 09:55:00
4:15 AM,21.2,19.4,93,30.35,10.0,North,-9999.0,-,N/A,,Clear,0,2013-02-16 10:15:00
4:35 AM,21.2,19.4,93,30.34,10.0,North,-9999.0,-,N/A,,Clear,0,2013-02-16 10:35:00
4:55 AM,21.2,17.6,86,30.35,10.0,North,-9999.0,-,N/A,,Clear,0,2013-02-16 10:55:00
5:15 AM,21.2,17.6,86,30.35,10.0,North,-9999.0,-,N/A,,Clear,0,2013-02-16 11:15:00
5:35 AM,21.2,17.6,86,30.35,10.0,North,-9999.0,-,N/A,,Clear,0,2013-02-16 11:35:00
5:55 AM,23.0,19.4,86,30.35,10.0,North,-9999.0,-,N/A,,Clear,0,2013-02-16 11:55:00
6:15 AM,21.2,17.6,86,30.35,10.0,North,-9999.0,-,N/A,,Clear,0,2013-02-16 12:15:00
6:35 AM,21.2,17.6,86,30.34,10.0,North,-9999.0,-,N/A,,Clear,0,2013-02-16 12:35:00
6:55 AM,21.2,17.6,86,30.33,10.0,North,-9999.0,-,N/A,,Clear,0,2013-02-16 12:55:00
7:15 AM,23.0,19.4,86,30.33,10.0,North,-9999.0,-,N/A,,Clear,0,2013-02-16 13:15:00
7:35 AM,23.0,19.4,86,30.33,10.0,North,-9999.0,-,N/A,,Clear,0,2013-02-16 13:35:00
7:55 AM,23.0,19.4,86,30.33,10.0,North,-9999.0,-,N/A,,Clear,0,2013-02-16 13:55:00
8:15 AM,26.6,19.4,74,30.33,10.0,North,-9999.0,-,N/A,,Clear,0,2013-02-16 14:15:00
8:35 AM,28.4,21.2,74,30.33,10.0,North,-9999.0,-,N/A,,Clear,0,2013-02-16 14:35:00
8:55 AM,30.2,21.2,69,30.33,10.0,North,-9999.0,-,N/A,,Clear,0,2013-02-16 14:55:00
9:15 AM,32.0,23.0,69,30.33,10.0,North,-9999.0,-,N/A,,Clear,0,2013-02-16 15:15:00
9:35 AM,33.8,21.2,60,30.32,10.0,North,-9999.0,-,N/A,,Clear,0,2013-02-16 15:35:00
12:15 PM,50.0,21.2,32,30.26,10.0,North,-9999.0,-,N/A,,Clear,0,2013-02-16 18:15:00
12:35 PM,51.8,21.2,30,30.24,10.0,North,-9999.0,-,N/A,,Clear,0,2013-02-16 18:35:00
12:55 PM,53.6,23.0,30,30.23,10.0,North,-9999.0,-,N/A,,Clear,0,2013-02-16 18:55:00
1:15 PM,53.6,21.2,28,30.22,10.0,North,-9999.0,-,N/A,,Clear,0,2013-02-16 19:15:00
1:35 PM,55.4,21.2,26,30.20,10.0,North,-9999.0,-,N/A,,Clear,0,2013-02-16 19:35:00
1:55 PM,55.4,19.4,25,30.18,10.0,North,-9999.0,-,N/A,,Clear,0,2013-02-16 19:55:00
2:15 PM,57.2,21.2,25,30.17,10.0,North,-9999.0,-,N/A,,Clear,0,2013-02-16 20:15:00
2:35 PM,57.2,17.6,21,30.16,10.0,North,-9999.0,-,N/A,,Clear,0,2013-02-16 20:35:00
2:55 PM,59.0,19.4,22,30.15,10.0,North,-9999.0,-,N/A,,Clear,0,2013-02-16 20:55:00
3:15 PM,59.0,17.6,20,30.14,10.0,North,-9999.0,-,N/A,,Clear,0,2013-02-16 21:15:00
3:35 PM,59.0,17.6,20,30.13,10.0,North,-9999.0,-,N/A,,Clear,0,2013-02-16 21:35:00
3:55 PM,60.8,17.6,19,30.11,10.0,North,-9999.0,-,N/A,,Clear,0,2013-02-16 21:55:00
4:15 PM,60.8,17.6,19,30.11,10.0,North,-9999.0,-,N/A,,Clear,0,2013-02-16 22:15:00
4:35 PM,60.8,17.6,19,30.11,10.0,North,-9999.0,-,N/A,,Clear,0,2013-02-16 22:35:00
4:55 PM,60.8,17.6,19,30.10,10.0,North,-9999.0,-,N/A,,Clear,0,2013-02-16 22:55:00
5:15 PM,59.0,17.6,20,30.09,10.0,North,-9999.0,-,N/A,,Clear,0,2013-02-16 23:15:00
5:35 PM,59.0,15.8,19,30.09,10.0,North,-9999.0,-,N/A,,Clear,0,2013-02-16 23:35:00
5:55 PM,57.2,17.6,21,30.08,10.0,North,-9999.0,-,N/A,,Clear,0,2013-02-16 23:55:00
6:15 PM,53.6,19.4,26,30.08,10.0,North,-9999.0,-,N/A,,Clear,0,2013-02-17 00:15:00
6:35 PM,50.0,17.6,28,30.07,10.0,North,-9999.0,-,N/A,,Clear,0,2013-02-17 00:35:00
6:55 PM,46.4,17.6,32,30.08,10.0,North,-9999.0,-,N/A,,Clear,0,2013-02-17 00:55:00
7:15 PM,44.6,19.4,37,30.08,10.0,North,-9999.0,-,N/A,,Clear,0,2013-02-17 01:15:00
7:35 PM,44.6,19.4,37,30.08,10.0,North,-9999.0,-,N/A,,Clear,0,2013-02-17 01:35:00
7:55 PM,42.8,19.4,39,30.08,10.0,North,-9999.0,-,N/A,,Clear,0,2013-02-17 01:55:00
8:15 PM,39.2,19.4,45,30.08,10.0,North,-9999.0,-,N/A,,Clear,0,2013-02-17 02:15:00
8:35 PM,37.4,21.2,52,30.08,10.0,North,-9999.0,-,N/A,,Clear,0,2013-02-17 02:35:00
8:55 PM,39.2,21.2,49,30.08,10.0,North,-9999.0,-,N/A,,Clear,0,2013-02-17 02:55:00
9:15 PM,37.4,21.2,52,30.08,10.0,North,-9999.0,-,N/A,,Clear,0,2013-02-17 03:15:00
9:35 PM,35.6,21.2,56,30.07,10.0,North,-9999.0,-,N/A,,Clear,0,2013-02-17 03:35:00
9:55 PM,35.6,21.2,56,30.07,10.0,North,-9999.0,-,N/A,,Clear,0,2013-02-17 03:55:00
10:15 PM,35.6,21.2,56,30.07,10.0,North,-9999.0,-,N/A,,Clear,0,2013-02-17 04:15:00
10:35 PM,37.4,19.4,48,30.06,10.0,North,-9999.0,-,N/A,,Clear,0,2013-02-17 04:35:00
10:55 PM,35.6,19.4,52,30.06,10.0,North,-9999.0,-,N/A,,Clear,0,2013-02-17 04:55:00
11:15 PM,35.6,19.4,52,30.05,10.0,North,-9999.0,-,N/A,,Clear,0,2013-02-17 05:15:00
11:35 PM,35.6,19.4,52,30.04,10.0,North,-9999.0,-,N/A,,Clear,0,2013-02-17 05:35:00
11:55 PM,37.4,17.6,45,30.03,10.0,North,-9999.0,-,N/A,,Clear,0,2013-02-17 05:55:00